George, South Africa

2:05 PM SAST on September 22, 2017 (GMT +0200)
George

Weather History for FAGG - September, 2011

Change the Weather History Date:

Thursday, September 1, 2011

  Actual Average Record
Temperature  
Mean Temperature 57 °F -  
Max Temperature 69 °F 64 °F 81 °F (2014)
Min Temperature 45 °F 47 °F 42 °F (2002)
Degree Days  
Heating Degree Days 8    
Growing Degree Days 7 (Base 50)    
Moisture  
Dew Point 49 °F    
Average Humidity 79    
Maximum Humidity 100    
Minimum Humidity 52    
Precipitation  
Precipitation 0.00 in - - ()
Sea Level Pressure  
Sea Level Pressure 29.91 in    
Wind  
Wind Speed 4 mph ()    
Max Wind Speed 13 mph    
Max Gust Speed -    
Visibility 7.0 miles    
Events      
Averages and records for this station are not official NWS values.
T = Trace of Precipitation, MM = Missing Value Source: Averaged Metar Reports

Daily Weather History Graph

Daily Weather History Graph

Search for Another Location

Airport or City:

Trip Planner

Search our weather history database for the weather conditions in past years. The results will help you decide how hot, cold, wet, or windy it might be!

Date:

Astronomy

Sep. 01, 2011 Rise Set
Actual Time 6:49 AM SAST 6:12 PM SAST
Civil Twilight 6:24 AM SAST 6:37 PM SAST
Nautical Twilight 5:55 AM SAST 7:06 PM SAST
Astronomical Twilight 5:26 AM SAST 7:35 PM SAST
Moon 8:33 AM SAST (9/1) 10:19 PM SAST (9/1)
Length of Visible Light 12h 13m
Length of Day
11h 22m
Waxing Crescent, 15% of the Moon is Illuminated
Sep 1
Waxing Crescent
Sep 4
First Quarter
Sep 12
Full
Sep 20
Last Quarter
Sep 27
New

Hourly Weather History & Observations

Time (SAST) Temp. Windchill Dew Point Humidity Pressure Visibility Wind Dir Wind Speed Gust Speed Precip Events Conditions
12:00 AM 50.0 °F - 50.0 °F 100% 30.09 in 4.3 mi WNW 3.5 mph - N/A   Partly Cloudy
1:00 AM 51.8 °F - 50.0 °F 94% 30.09 in - North 2.3 mph - N/A   Clear
2:00 AM 48.2 °F - 48.2 °F 100% 30.04 in - East 5.8 mph - N/A   Clear
3:00 AM 50.0 °F - 46.4 °F 87% 30.01 in - ESE 4.6 mph - N/A   Clear
4:00 AM 48.2 °F - 44.6 °F 87% 30.01 in - Variable 3.5 mph - N/A   Clear
5:00 AM 46.4 °F 44.3 °F 44.6 °F 93% 30.01 in 6.2 mi NW 4.6 mph - N/A   Partly Cloudy
6:00 AM 46.4 °F 44.3 °F 44.6 °F 93% 30.01 in 6.2 mi NW 4.6 mph - N/A   Partly Cloudy
7:00 AM 46.4 °F 43.5 °F 44.6 °F 93% 30.01 in 6.2 mi NW 5.8 mph - N/A   Partly Cloudy
8:00 AM 49 °F - 47 °F 91% 29.99 in 12 mi North 3.5 mph - -   Scattered Clouds
8:00 AM 50.0 °F - 46.4 °F 87% 29.98 in 6.2 mi North 3.5 mph - N/A   Partly Cloudy
9:00 AM 53.6 °F - 50.0 °F 88% 29.95 in 6.2 mi Variable 2.3 mph - N/A   Partly Cloudy
9:38 AM 57.2 °F - 51.8 °F 82% 29.92 in 6.2 mi SE 3.5 mph - N/A   Partly Cloudy
10:00 AM 57.2 °F - 50.0 °F 77% 29.92 in 6.2 mi SE 4.6 mph - N/A   Partly Cloudy
11:00 AM 59 °F - 52 °F 72% 29.91 in 12 mi SSE 4.6 mph - -   Scattered Clouds
11:00 AM 59.0 °F - 51.8 °F 77% 29.89 in 6.2 mi SSE 4.6 mph - N/A   Partly Cloudy
12:00 PM 59.0 °F - 51.8 °F 77% 29.86 in 6.2 mi SSW 4.6 mph - N/A   Partly Cloudy
12:49 PM 62.6 °F - 51.8 °F 68% 29.86 in 6.2 mi Variable 3.5 mph - N/A   Partly Cloudy
1:00 PM 64.4 °F - 51.8 °F 64% 29.83 in - Variable 2.3 mph - N/A   Clear
1:43 PM 68.0 °F - 50.0 °F 52% 29.80 in - Variable 4.6 mph - N/A   Clear
2:00 PM 68.0 °F - 50.0 °F 52% 29.80 in - Variable 3.5 mph - N/A   Clear
3:00 PM 66.2 °F - 50.0 °F 56% 29.80 in - SSW 10.4 mph - N/A   Clear
4:00 PM 60.8 °F - 50.0 °F 68% 29.83 in 6.2 mi South 12.7 mph - N/A   Partly Cloudy
5:00 PM 59 °F - 50 °F 63% 29.83 in 12 mi SSW 6.9 mph - -   Partly Cloudy
5:00 PM 59.0 °F - 50.0 °F 72% 29.83 in 6.2 mi SSW 6.9 mph - N/A   Scattered Clouds
6:00 PM 57.2 °F - 48.2 °F 72% 29.83 in 6.2 mi Variable 2.3 mph - N/A   Scattered Clouds
7:00 PM 53.6 °F - 48.2 °F 82% 29.83 in 6.2 mi South 4.6 mph - N/A   Scattered Clouds
8:00 PM 51.8 °F - 48.2 °F 88% 29.83 in 6.2 mi North 4.6 mph - N/A   Partly Cloudy
9:00 PM 51.8 °F - 48.2 °F 88% 29.83 in - Variable 2.3 mph - N/A   Clear
10:00 PM 53.6 °F - 48.2 °F 82% 29.83 in - WNW 3.5 mph - N/A   Clear
11:00 PM 53.6 °F - 41.0 °F 62% 29.80 in - NW 4.6 mph - N/A   Clear